Regional Weather Roundup
Issued by NWS Northern Indiana

Home | Current Version | Previous Version | Text Only | Print | Product List | Glossary On
Versions: 1 2 3 4 5 6 7 8 9 10 11 12 13 14 15 16 17 18 19 20 21 22 23 24 25 26 27 28 29 30 31 32 33 34 35 36 37 38 39 40 41 42 43 44 45 46 47 48 49 50
000
ASUS43 KIWX 280110
RWRIWX

KIWX WEATHER ROUNDUP
NATIONAL WEATHER SERVICE NORTHERN INDIANA
800 PM EST SAT DEC 27 2014

NOTE: "FAIR" INDICATES FEW OR NO CLOUDS BELOW 12,000 FEET WITH NO
SIGNIFICANT WEATHER AND/OR OBSTRUCTIONS TO VISIBILITY.

* THESE STATIONS ARE NOT UNDER NWS QUALITY CONTROL. THEY ALSO MAY NOT
  REPORT WEATHER SUCH AS PRECIPITATION OR FOG.

INZ001>027-280200-
NORTHERN INDIANA

CITY           SKY/WX    TMP DP  RH WIND       PRES   REMARKS
GARY*          CLOUDY    36  25  64 W14G29    30.09R
VALPARAISO     CLOUDY    34  28  79 W15       30.09R WCI  24
MICHIGAN CITY* CLOUDY    34  27  75 W12G22    30.08R WCI  25
LAPORTE*       CLOUDY    37  31  79 W12G18    30.08R
KNOX*          CLOUDY    36  29  75 W13       30.07R
SOUTH BEND     CLOUDY    37  30  75 W15       30.06S
GOSHEN         MIX PCPN  37  33  85 W12       30.04F
MONTICELLO*    DRIZZLE   35  33  92 W10G18    30.11R WCI  27
LOGANSPORT*    LGT RAIN  36  32  87 W9        30.10R
ROCHESTER*     CLOUDY    37  36  93 W7        30.07S
WARSAW*        CLOUDY    36  32  87 W10       30.05F
ANGOLA*        CLOUDY    37  36  93 W6        30.01F
FORT WAYNE     CLOUDY    40  35  83 W22       30.05F
HUNTINGTON*    CLOUDY    38  33  80 W14       30.06S
PERU/GRISSOM   LGT RAIN  37  37 100 W13       30.08S
MARION*        CLOUDY    40  38  91 NW16      30.07S

$$
INZ028>050-280200-
CENTRAL INDIANA

CITY           SKY/WX    TMP DP  RH WIND       PRES   REMARKS
LAFAYETTE      LGT RAIN  34  32  92 W12       30.12R WCI  25
KOKOMO*        CLOUDY    39  34  81 NW14      30.08R
MUNCIE*        LGT RAIN  47  45  93 NW17      30.04F
INDIANAPOLIS   DRIZZLE   40  39  97 NW16      30.08R

$$
MIZ043>046-050>051-056>058-064>065-071>073-077>080-280200-
SOUTHWEST LOWER MICHIGAN

CITY           SKY/WX    TMP DP  RH WIND       PRES   REMARKS
BATTLE CREEK   CLOUDY    38  31  76 W12G22    30.01R
BENTON HARBOR  CLOUDY    35  30  82 W15G22    30.05F WCI  25
COLDWATER*     LGT RAIN  37  33  86 W10       30.01F
HILLSDALE*     RAIN      39  34  80 W14G30    30.00R
HOLLAND        CLOUDY    38  31  76 W12G22    30.03R
GRAND RAPIDS   CLOUDY    37  31  78 W15G25    29.99S
KALAMAZOO      CLOUDY    37  31  78 W16G22    30.02F
STURGIS*       RAIN      36  32  87 W14G20    30.02F
THREE RIVERS*  CLOUDY    37  32  81 W15       30.03F

$$
OHZ001>008-015>018-024>025-280200-
NORTHWEST OHIO

CITY           SKY/WX    TMP DP  RH WIND       PRES   REMARKS
WAUSEON*       DRIZZLE   43  37  81 W23G32    30.01R
DEFIANCE       LGT RAIN  45  40  82 VRB7G18   30.03R
FINDLAY        CLOUDY    48  45  89 SW10      30.01F FOG
TOLEDO EXPRESS LGT RAIN  47  44  90 SW12      29.99S
TOLEDO METCALF CLOUDY    48  44  86 SW14      30.00R
LIMA           CLOUDY    48  45  89 SW12      30.03S FOG

$$
AND FOR LAKE MICHIGAN COASTAL AND OPEN LAKE BUOY OBSERVATIONS

STATION/POSITION TEMP    WIND        PRES    VSBY  WAVE
                 AIR SEA DIR/SP/G                  HT/PER
                 (F)     (DEG/KT/KT) (MB)    (MI)  (FT/S)
CALUMET HARBOR    35     250/  6/ 14 1017.4F
MICHIGAN CITY     35     250/ 24/ 27   N/A
SAINT JOSEPH      37     250/ 14/ 19 1018.6R

$$
&&


USA.gov is the U.S. government's official web portal to all federal, state and local government web resources and services.